Weather History for Bullhead City, AZ

Change the Weather History Date:

Thursday, January 17, 2013

  Actual Average Record
Temperature  
Mean Temperature 56 °F -  
Max Temperature 64 °F 63 °F 78 °F (2011)
Min Temperature 48 °F 46 °F 32 °F (2007)
Degree Days  
Heating Degree Days 9    
Growing Degree Days 6 (Base 50)    
Moisture  
Dew Point 16 °F    
Average Humidity 22    
Maximum Humidity 30    
Minimum Humidity 14    
Precipitation  
Precipitation 0.00 in - - ()
Sea Level Pressure  
Sea Level Pressure 30.28 in    
Wind  
Wind Speed 26 mph (North)    
Max Wind Speed 37 mph    
Max Gust Speed 44 mph    
Visibility 10 miles    
Events      
Averages and records for this station are not official NWS values.
T = Trace of Precipitation, MM = Missing Value Source: NWS Daily Summary

Daily Weather History Graph

Daily Weather History Graph

Search for Another Location

Airport:

Trip Planner

Search our weather history database for the weather conditions in past years. The results will help you decide how hot, cold, wet, or windy it might be!

Date:

Astronomy

Jan. 17, 2013 Rise Set
Actual Time 7:45 AM MST 5:51 PM MST
Civil Twilight 7:17 AM MST 6:19 PM MST
Nautical Twilight 6:46 AM MST 6:50 PM MST
Astronomical Twilight 6:16 AM MST 7:20 PM MST
Moon 11:11 AM MST (1/17) No Moon Set
Length of Visible Light 11h 01m
Length of Day
10h 06m
Waxing Crescent, 38% of the Moon is Illuminated
Jan 17
Waxing Crescent
Jan 18
First Quarter
Jan 26
Full
Feb 3
Last Quarter
Feb 10
New

Hourly Weather History & Observations

Time (MST) Temp. Dew Point Humidity Pressure Visibility Wind Dir Wind Speed Gust Speed Precip Events Conditions
12:15 AM 53.6 °F 19.4 °F 26% 30.32 in 10.0 mi North 20.7 mph 31.1 mph N/A   Clear
12:35 AM 53.6 °F 17.6 °F 24% 30.32 in 10.0 mi North 24.2 mph - N/A   Clear
12:55 AM 53.6 °F 17.6 °F 24% 30.32 in 10.0 mi North 26.5 mph 31.1 mph N/A   Clear
1:15 AM 53.6 °F 17.6 °F 24% 30.32 in 10.0 mi North 25.3 mph 32.2 mph N/A   Clear
1:35 AM 51.8 °F 17.6 °F 26% 30.32 in 10.0 mi North 25.3 mph 32.2 mph N/A   Clear
1:55 AM 51.8 °F 17.6 °F 26% 30.32 in 10.0 mi North 26.5 mph - N/A   Clear
2:15 AM 51.8 °F 17.6 °F 26% 30.32 in 10.0 mi NNE 27.6 mph 35.7 mph N/A   Clear
2:35 AM 50.0 °F 17.6 °F 28% 30.31 in 10.0 mi NNE 29.9 mph 34.5 mph N/A   Clear
2:55 AM 50.0 °F 17.6 °F 28% 30.31 in 10.0 mi North 29.9 mph 35.7 mph N/A   Clear
3:15 AM 50.0 °F 17.6 °F 28% 30.31 in 10.0 mi NNE 25.3 mph 36.8 mph N/A   Clear
3:35 AM 50.0 °F 17.6 °F 28% 30.30 in 10.0 mi North 28.8 mph 34.5 mph N/A   Clear
3:55 AM 50.0 °F 17.6 °F 28% 30.30 in 10.0 mi North 27.6 mph 31.1 mph N/A   Clear
4:15 AM 48.2 °F 17.6 °F 30% 30.29 in 10.0 mi NNE 32.2 mph 36.8 mph N/A   Clear
4:35 AM 48.2 °F 17.6 °F 30% 30.30 in 10.0 mi NNE 28.8 mph 35.7 mph N/A   Clear
4:55 AM 48.2 °F 17.6 °F 30% 30.31 in 10.0 mi NNE 23.0 mph 35.7 mph N/A   Clear
5:15 AM 48.2 °F 17.6 °F 30% 30.30 in 10.0 mi NNE 28.8 mph 33.4 mph N/A   Clear
5:35 AM 48.2 °F 15.8 °F 27% 30.30 in 10.0 mi NNE 31.1 mph 40.3 mph N/A   Clear
5:55 AM 48.2 °F 17.6 °F 30% 30.30 in 10.0 mi NNE 28.8 mph 39.1 mph N/A   Clear
6:15 AM 48.2 °F 17.6 °F 30% 30.30 in 10.0 mi NNE 32.2 mph 38.0 mph N/A   Clear
6:35 AM 48.2 °F 17.6 °F 30% 30.30 in 10.0 mi NNE 28.8 mph 41.4 mph N/A   Clear
6:55 AM 48.2 °F 17.6 °F 30% 30.30 in 10.0 mi NNE 31.1 mph 36.8 mph N/A   Clear
7:15 AM 48.2 °F 17.6 °F 30% 30.30 in 10.0 mi NNE 35.7 mph 42.6 mph N/A   Clear
7:35 AM 48.2 °F 15.8 °F 27% 30.31 in 10.0 mi North 32.2 mph 42.6 mph N/A   Clear
7:55 AM 48.2 °F 15.8 °F 27% 30.33 in 10.0 mi North 29.9 mph 38.0 mph N/A   Clear
8:15 AM 48.2 °F 17.6 °F 30% 30.34 in 10.0 mi North 28.8 mph 39.1 mph N/A   Clear
8:55 AM 48.2 °F 17.6 °F 30% 30.34 in 10.0 mi North 29.9 mph 40.3 mph N/A   Clear
9:15 AM 48.2 °F 17.6 °F 30% 30.35 in 10.0 mi North 25.3 mph 34.5 mph N/A   Clear
9:35 AM 50.0 °F 15.8 °F 26% 30.35 in 10.0 mi North 31.1 mph 36.8 mph N/A   Clear
9:55 AM 50.0 °F 15.8 °F 26% 30.35 in 10.0 mi North 36.8 mph 43.7 mph N/A   Clear
10:15 AM 51.8 °F 15.8 °F 24% 30.35 in 10.0 mi North 31.1 mph 42.6 mph N/A   Clear
10:35 AM 53.6 °F 15.8 °F 22% 30.35 in 10.0 mi North 32.2 mph 41.4 mph N/A   Clear
10:55 AM 53.6 °F 15.8 °F 22% 30.34 in 10.0 mi North 29.9 mph 43.7 mph N/A   Clear
11:15 AM 55.4 °F 15.8 °F 21% 30.34 in 10.0 mi North 27.6 mph 42.6 mph N/A   Clear
11:35 AM 55.4 °F 15.8 °F 21% 30.33 in 10.0 mi North 33.4 mph 42.6 mph N/A   Clear
11:55 AM 57.2 °F 15.8 °F 20% 30.32 in 10.0 mi North 33.4 mph 40.3 mph N/A   Clear
12:15 PM 57.2 °F 15.8 °F 20% 30.32 in 10.0 mi North 28.8 mph 42.6 mph N/A   Clear
12:35 PM 57.2 °F 15.8 °F 20% 30.30 in 10.0 mi North 32.2 mph 40.3 mph N/A   Clear
12:55 PM 59.0 °F 15.8 °F 19% 30.29 in 10.0 mi North 26.5 mph 38.0 mph N/A   Clear
1:15 PM 59.0 °F 15.8 °F 19% 30.28 in 10.0 mi North 25.3 mph 39.1 mph N/A   Clear
1:35 PM 59.0 °F 15.8 °F 19% 30.27 in 10.0 mi North 24.2 mph 35.7 mph N/A   Clear
1:55 PM 60.8 °F 15.8 °F 17% 30.26 in 10.0 mi North 25.3 mph 34.5 mph N/A   Clear
2:15 PM 62.6 °F 15.8 °F 16% 30.25 in 10.0 mi North 27.6 mph 34.5 mph N/A   Clear
2:55 PM 62.6 °F 14.0 °F 15% 30.24 in 10.0 mi North 26.5 mph 34.5 mph N/A   Clear
3:15 PM 62.6 °F 14.0 °F 15% 30.23 in 10.0 mi North 28.8 mph 34.5 mph N/A   Clear
3:35 PM 62.6 °F 14.0 °F 15% 30.23 in 10.0 mi North 25.3 mph 33.4 mph N/A   Clear
3:55 PM 62.6 °F 15.8 °F 16% 30.23 in 10.0 mi North 21.9 mph 33.4 mph N/A   Clear
4:15 PM 62.6 °F 15.8 °F 16% 30.23 in 10.0 mi North 25.3 mph 31.1 mph N/A   Clear
4:35 PM 64.4 °F 14.0 °F 14% 30.23 in 10.0 mi North 23.0 mph 32.2 mph N/A   Clear
4:55 PM 62.6 °F 15.8 °F 16% 30.23 in 10.0 mi North 24.2 mph 31.1 mph N/A   Clear
5:15 PM 62.6 °F 15.8 °F 16% 30.23 in 10.0 mi North 21.9 mph 31.1 mph N/A   Clear
5:35 PM 62.6 °F 14.0 °F 15% 30.23 in 10.0 mi North 18.4 mph 27.6 mph N/A   Clear
5:55 PM 62.6 °F 15.8 °F 16% 30.23 in 10.0 mi North 23.0 mph - N/A   Clear
6:15 PM 60.8 °F 15.8 °F 17% 30.24 in 10.0 mi North 18.4 mph 25.3 mph N/A   Clear
6:35 PM 60.8 °F 17.6 °F 19% 30.24 in 10.0 mi North 19.6 mph - N/A   Clear
6:55 PM 59.0 °F 15.8 °F 19% 30.24 in 10.0 mi North 19.6 mph 24.2 mph N/A   Clear
7:15 PM 59.0 °F 15.8 °F 19% 30.24 in 10.0 mi North 19.6 mph 25.3 mph N/A   Clear
7:35 PM 59.0 °F 15.8 °F 19% 30.24 in 10.0 mi NNE 20.7 mph 25.3 mph N/A   Clear
7:55 PM 59.0 °F 15.8 °F 19% 30.25 in 10.0 mi NNE 20.7 mph - N/A   Clear
8:15 PM 59.0 °F 15.8 °F 19% 30.25 in 10.0 mi NNE 20.7 mph - N/A   Clear
8:35 PM 59.0 °F 15.8 °F 19% 30.25 in 10.0 mi NNE 17.3 mph - N/A   Clear
8:55 PM 59.0 °F 14.0 °F 17% 30.25 in 10.0 mi NNE 19.6 mph - N/A   Clear
9:15 PM 59.0 °F 15.8 °F 19% 30.25 in 10.0 mi NNE 17.3 mph - N/A   Clear
9:35 PM 57.2 °F 15.8 °F 20% 30.25 in 10.0 mi NNE 19.6 mph 23.0 mph N/A   Clear
9:55 PM 59.0 °F 14.0 °F 17% 30.24 in 10.0 mi North 21.9 mph 26.5 mph N/A   Clear
10:15 PM 59.0 °F 15.8 °F 19% 30.24 in 10.0 mi North 23.0 mph - N/A   Clear
10:35 PM 57.2 °F 15.8 °F 20% 30.25 in 10.0 mi NNE 20.7 mph 26.5 mph N/A   Clear
10:55 PM 57.2 °F 15.8 °F 20% 30.24 in 10.0 mi NNE 21.9 mph - N/A   Clear
11:15 PM 57.2 °F 15.8 °F 20% 30.24 in 10.0 mi NNE 23.0 mph - N/A   Clear
11:35 PM 57.2 °F 15.8 °F 20% 30.24 in 10.0 mi NNE 24.2 mph - N/A   Clear
11:55 PM 57.2 °F 15.8 °F 20% 30.24 in 10.0 mi NNE 24.2 mph 29.9 mph N/A   Clear